Home   Weather   Venice   Past weeks

Flag for Italy Past Weather in Venice, Italy — Yesterday and Last 2 Weeks

50 °F

Partly sunny.

Feels Like: 47 °F
Forecast: 52 / 62 °F
Wind: 8 mph from Northeast

Location: Venice / Tessera

Current Time: Oct 23, 2016 at 8:24:28 AM

Latest Report: Oct 23, 2016 at 7:50 AM

Visibility: N/A

Pressure: 30.04 "Hg

Humidity: 82%

Dew Point: 45 °F

Location of VeniceLocation

Past Weather in Venice — Graph


Venice Temperature Yesterday

Maximum temperature yesterday: 61 °F (at 2:20 PM)
Minimum temperature yesterday: 43 °F (at 7:20 AM)
Average temperature yesterday: 53 °F

High & Low Weather Summary for the Past Weeks

High70 °F (Oct 15, 3:50 PM)100% (Oct 14, 3:20 PM)30.24 "Hg (Oct 14, 3:20 PM)
Low43 °F (Oct 12, 6:50 AM)42% (Oct 9, 3:20 PM)29.83 "Hg (Oct 15, 2:20 AM)
Average56 °F78%30.02 "Hg
* Reported Oct 8 6:20 AM — Oct 23 6:50 AM, Venice, Weather by CustomWeather, © 2016

Note: Actual official high and low records may vary slightly from our data, if they occured in-between our weather recording intervals... More about our weather records


Venice Weather History for the Previous 24 Hours

Scroll right to see more
Time TempWeatherWind HumidityBarometerVisibility
6:50 AM
Sun, Oct 23
48 °FPassing clouds.5 mph87%30.04 "HgN/A
6:20 AM50 °FPassing clouds.6 mph76%30.04 "HgN/A
5:50 AM50 °FPassing clouds.8 mph82%30.04 "HgN/A
5:20 AM50 °FClear.6 mph82%30.04 "Hg10 mi
4:50 AM48 °FPassing clouds.6 mph87%30.04 "HgN/A
4:20 AM48 °FClear.7 mph94%30.04 "Hg10 mi
3:50 AM48 °FPassing clouds.8 mph87%30.04 "HgN/A
3:20 AM50 °FPassing clouds.3 mph82%30.04 "HgN/A
2:50 AM50 °FPassing clouds.5 mph88%30.04 "HgN/A
2:20 AM52 °FPassing clouds.3 mph82%30.04 "HgN/A
1:50 AM52 °FPassing clouds.3 mph82%30.04 "HgN/A
1:20 AM52 °FPassing clouds.1 mph82%30.04 "HgN/A
12:50 AM52 °FPassing clouds.3 mph82%30.04 "HgN/A
12:20 AM52 °FPassing clouds.3 mph82%30.04 "HgN/A
11:50 PM
Sat, Oct 22
52 °FPassing clouds.3 mph82%30.04 "HgN/A
11:20 PM54 °FClear.5 mph77%30.04 "Hg10 mi
10:50 PM52 °FPassing clouds.6 mph82%30.04 "HgN/A
10:20 PM54 °FClear.6 mph82%30.04 "Hg10 mi
9:50 PM55 °FPassing clouds.2 mph77%30.04 "HgN/A
9:20 PM55 °FPassing clouds.3 mph72%30.04 "HgN/A
8:50 PM55 °FPassing clouds.5 mph72%30.01 "HgN/A
8:20 PM55 °FPassing clouds.6 mph72%30.01 "HgN/A
7:50 PM55 °FClear.6 mph77%30.01 "Hg10 mi
7:20 PM55 °FPassing clouds.5 mph77%30.01 "HgN/A
6:50 PM55 °FPassing clouds.5 mph77%30.01 "HgN/A
6:20 PM57 °FClear.5 mph72%29.98 "Hg10 mi
5:50 PM57 °FSunny.5 mph59%29.98 "Hg10 mi
5:20 PM57 °FSunny.5 mph59%29.98 "Hg10 mi
4:50 PM61 °FPassing clouds.5 mph48%29.98 "HgN/A
4:20 PM61 °FSunny.6 mph48%29.98 "Hg10 mi
3:50 PM61 °FPassing clouds.6 mph48%29.98 "HgN/A
3:20 PM61 °FPassing clouds.5 mph48%29.98 "HgN/A
2:50 PM59 °FPassing clouds.6 mph48%29.98 "HgN/A
2:20 PM61 °FPassing clouds.6 mph45%30.01 "HgN/A
1:50 PM59 °FPassing clouds.5 mph48%30.01 "HgN/A
1:20 PM59 °FPassing clouds.7 mph48%30.01 "HgN/A
12:50 PM59 °FPassing clouds.9 mph48%30.01 "HgN/A
12:20 PM59 °FPassing clouds.9 mph48%30.01 "HgN/A
11:50 AM57 °FPassing clouds.9 mph55%30.01 "HgN/A
11:20 AM55 °FSunny.9 mph63%30.01 "Hg10 mi
10:50 AM55 °FPassing clouds.8 mph63%30.01 "HgN/A
10:20 AM54 °FPassing clouds.7 mph67%30.01 "HgN/A
9:50 AM50 °FSunny.7 mph76%30.01 "Hg10 mi
9:20 AM48 °FSunny.7 mph82%30.01 "Hg10 mi
8:50 AM46 °FPassing clouds.7 mph82%30.01 "HgN/A
8:20 AM45 °FPassing clouds.5 mph87%30.01 "HgN/A
Weather by CustomWeather, © 2016

See weather overviewHow to use our weather pages